Regional Weather Roundup
Issued by NWS Charleston, SC

Current Version | Previous Version | Graphics & Text | Print | Product List | Glossary On
Versions: 1 2 3 4 5 6 7 8 9 10 11 12 13 14 15 16 17 18 19 20 21 22 23 24 25 26 27 28 29 30 31 32 33 34 35 36 37 38 39 40 41 42 43 44 45 46 47 48 49 50
000
ASUS42 KCHS 231812
RWRCHS

REGIONAL WEATHER ROUNDUP
NATIONAL WEATHER SERVICE CHARLESTON SC
200 PM EDT SUN APR 23 2017

NOTE: "FAIR" INDICATES FEW OR NO CLOUDS BELOW 12,000 FEET WITH NO
SIGNIFICANT WEATHER AND/OR OBSTRUCTIONS TO VISIBILITY.

NOT ALL STATIONS ARE QUALITY CONTROLLED. USE DATA WITH CAUTION...
ESPECIALLY DEWPOINT OBSERVATIONS.

SCZ027-030-031-034>040-042>050-231900-
...SOUTHEAST SOUTH CAROLINA...

CITY           SKY/WX    TMP DP  RH WIND       PRES   REMARKS
N CHARLESTON   PTSUNNY   81  67  62 S16       29.84F
6HR MIN TEMP:  73; 6HR MAX TEMP:  83;

WATERFRONT PRK   N/A     76  70  81 S15       29.83F
JOHNS ISLAND   MOCLDY    79  72  78 S12       29.85F
PINOPOLIS        N/A     75  72  88 N6        29.77F
MONCKS CORNER  MOCLDY    81  64  57 S7        29.82F
SUMMERVILLE    FAIR      82  64  54 SE8       29.83F
BEAUFORT MCAS  SUNNY     84  70  62 S9        29.82F
6HR MIN TEMP:  74; 6HR MAX TEMP:  86;

BEAUFORT ARPT  FAIR      81  68  65 S13       29.82F
HILTON HEAD IS SUNNY     79  70  73 S14       29.85F
WALTERBORO     PTCLDY    84  64  51 SE8       29.82F
ALLENDALE      MOCLDY    82  61  47 SE8       29.79F

...SOUTHERN MIDLANDS AND PEE DEE...

CITY           SKY/WX    TMP DP  RH WIND       PRES   REMARKS
GEORGETOWN     CLOUDY    81  68  65 SE12G17   29.87F
KINGSTREE      CLOUDY    72  61  68 NE10      29.88S
ORANGEBURG     CLOUDY    83  63  50 SE6       29.80F
6HR MIN TEMP:  66; 6HR MAX TEMP:  83;

BARNWELL       MOCLDY    86  63  45 S8        29.80F
AIKEN          FAIR      75  63  64 E14       29.84F
MANNING        MOCLDY    73  64  73 NE13G32   29.84F
COLUMBIA       CLOUDY    70  59  68 N10       29.84F
6HR MIN TEMP:  65; 6HR MAX TEMP:  71;

SUMTER         CLOUDY    72  60  66 NE12      29.84F
6HR MIN TEMP:  65; 6HR MAX TEMP:  72;

FLORENCE       CLOUDY    66  59  78 E14       29.91F
6HR MIN TEMP:  61; 6HR MAX TEMP:  66;

MYRTLE BEACH   PTSUNNY   72  64  78 E17       29.90F
N MYRTLE BEACH CLOUDY    70  65  84 E14       29.90F
6HR MIN TEMP:  63; 6HR MAX TEMP:  72; 6HR PCP:  0.04;


$$

GAZ063-065-086>088-099>101-113>116-118-119-134>141-150-231900-
...SOUTHEAST GEORGIA...

CITY           SKY/WX    TMP DP  RH WIND       PRES   REMARKS
SAVANNAH ARPT  PTSUNNY   86  60  41 S16G22    29.81F
6HR MIN TEMP:  70; 6HR MAX TEMP:  88;

HUNTER AAF     MOSUNNY   82  71  68 SE13      29.79F
6HR MIN TEMP:  72; 6HR MAX TEMP:  85;

FORT STEWART   MOSUNNY   85  61  43 S7        29.78F
6HR MIN TEMP:  67; 6HR MAX TEMP:  87;

STATESBORO     MOSUNNY   86  60  41 SW8       29.80F
SYLVANIA       PTCLDY    86  63  45 SW9       29.81F
CLAXTON        FAIR      85  65  51 S7        29.80F

...CSRA...CENTRAL AND FAR SOUTHEAST GEORGIA...

CITY           SKY/WX    TMP DP  RH WIND       PRES   REMARKS
THOMSON        CLOUDY    82  59  44 W5        29.84F
AUGUSTA-BUSH   CLOUDY    84  64  50 CALM      29.78F
6HR MIN TEMP:  68; 6HR MAX TEMP:  84;

AUGUSTA-DANIEL MOSUNNY   83  58  42 SE10      29.80F
SWAINSBORO     MOCLDY    82  59  44 S9        29.80F
VIDALIA        PTSUNNY   86  59  39 SW13G20   29.80F
EASTMAN        MOCLDY    83  41  22 S8        29.82F
HAZLEHURST     FAIR      84  62  47 SW16      29.80F
ALMA           MOSUNNY   85  61  44 S10G20    29.81F
6HR MIN TEMP:  65; 6HR MAX TEMP:  85;

WAYCROSS       PTSUNNY   87  66  49 S7G16     29.80F
JESUP          MOCLDY    88  55  33 SW10      29.81F
BAXLEY         FAIR      86  64  48 SW7       29.80F
BRUNSWICK      SUNNY     86  64  48 S10G17    29.82F
SAINT SIMONS   MOSUNNY   82  65  56 SE13      29.83F
6HR MIN TEMP:  71; 6HR MAX TEMP:  82;


$$

SCZ027-028-034-036>038-045-046-048>050-GAZ119-141-231900-
...LAKE AND SUPPLEMENTAL COASTAL OBSERVATIONS...

STATION/POSITION TIME  TEMP    WIND        PRES    WAVE   SWELL
                       AIR SEA DIR/SP/G            HT/PER HT/PER/DIR
                 (UTC) (F)     (DEG/KT/KT) (MB)    (FT/S) (FT/S/D)
WINYAH BAY       NOT AVBL
LAKE MURRAY      1720   63      30/  5/  7 1011.2
ACE BASIN NERRS  NOT AVBL
FORT PULASKI     1742   79 75  170/  7/ 11 1010.4F
SAPELO ISLAND    1700   84     140/ 10     1011.0

$$

ANZ835-935-AMZ111-154-330-350-352-354-370-450-454-472-231900-
...C-MAN AND BUOY OBSERVATIONS...

STATION/POSITION TIME  TEMP    WIND        PRES    WAVE   SWELL
                       AIR SEA DIR/SP/G            HT/PER HT/PER/DIR
                 (UTC) (F)     (DEG/KT/KT) (MB)    (FT/S) (FT/S/D)
BUOY 41004       1750   75 75  170/ 10/ 12 1011.4F   3/13   3/100/13
BUOY 41008       1650   72 73  150/  6/  8 1011.2    3/12   3/ 70/12
FOLLY BEACH CMAN 1700   76     180/ 10/ 12 1012.2F
CAPERS NEARSHORE 1708   74 73  190/ 10/ 14 1011.5F
FRIPP NEARSHORE  1708   73 75  170/  8/ 12 1010.9F


STATION/POSITION TIME  TEMP    WIND        PRES    WAVE   SWELL
                       AIR SEA DIR/SP/G            HT/PER HT/PER/DIR
                 (UTC) (F)     (DEG/KT/KT) (MB)    (FT/S) (FT/S/D)
5E ST. MARYS GA  1730      74                N/A     2/12   2/100/12
FRYING PAN BUOY  1750   73 74   70/ 12/ 14 1012.4F   5/ 5   2/170/ 6
BUOY 41025       1750   66 75   20/ 17/ 21 1014.4F   5/11   3/ 90/11
CAPE LOOKOUT NC  1700   63      50/ 18/ 19 1014.7F
BUOY 41002       1750   73 75  170/ 10/ 12 1014.8F   4/11   3/ 30/11
BUOY 41010       1750   76 78  160/ 16/ 19 1012.0F   5/13   3/ 80/13
ST AUGUSTINE FL  1800   74 77  130/ 11/ 14 1011.4F


$$



USA.gov is the U.S. government's official web portal to all federal, state and local government web resources and services.